Terminal Aerodrome Forecast
Issued by NWS Wakefield, VA

Home | Current Version | Previous Version | Text Only | Print | Product List | Glossary On
Versions: 1 2 3 4 5 6 7 8 9 10 11 12 13 14 15 16 17
000
FTUS41 KAKQ 281730
TAFORF
TAF
KORF 281730Z 2818/2918 23015G22KT P6SM VCSH SCT070 BKN100
     FM282100 23015G23KT 6SM -SHRA VCTS BKN035CB BKN080
     FM290100 25011KT 6SM -SHRA BKN100
     FM290500 25006KT P6SM BKN100
     FM290800 34008KT P6SM BKN020
     FM291000 01010G15KT P6SM BKN005
     FM291500 36012G19KT P6SM SCT015=

USA.gov is the U.S. government's official web portal to all federal, state and local government web resources and services.